Regional Weather Roundup
Issued by NWS Pendleton, OR

Home | Current Version | Previous Version | Text Only | Print | Product List | Glossary On
Versions: 1 2 3 4 5 6 7 8 9 10 11 12 13 14 15 16 17 18 19 20 21 22 23 24 25 26 27 28 29 30 31 32 33 34 35 36 37 38 39 40 41 42 43 44 45 46 47 48 49 50
000
ASUS46 KPDT 241925
RWRPDT
PENDLETON REGIONAL WEATHER ROUNDUP
NATIONAL WEATHER SERVICE PENDLETON OREGON
1200 PM PDT MON JUL 24 2017

NOTE: FAIR INDICATES FEW OR NO CLOUDS BELOW 12,000 FEET WITH NO
SIGNIFICANT WEATHER AND/OR OBSTRUCTIONS TO VISIBILITY.

# INDICATES UNOFFICIAL STATION AND DATA

WAZ520-242010-
EAST SLOPES OF WASHINGTON CASCADES

CITY            SKY/WX      TMP DP  RH  WIND    PRES   REMARKS
#BULLFROG       N/A         77  40  26  E1      N/A
#CLE ELUM HS    N/A         76  40  27  SE1     29.94F
#CLE ELUM LAKE  N/A         77  45  32  SW1     30.06F
#EASTON DOT     N/A         76  35  22  N1      N/A
#ELK HTS DOT    N/A         76  76  100 NE3     N/A
#GLENWOOD       N/A         80  51  36  S1      29.89F
#NELSON 3SW     N/A         73  43  34  CALM    30.10F
#NILE           N/A         79  40  25  NE3     29.19F
#TEANAWAY 4NE   N/A         77  44  31  W3      N/A
#TROUT LAKE 1NE N/A         79  48  34  CALM    29.89F
#TROUT LAKE 1E  N/A         79  48  34  CALM    30.01F
$$

WAZ521-242010-
SIMCOE HIGHLANDS

CITY            SKY/WX      TMP DP  RH  WIND    PRES   REMARKS
#BICKLETON HS   N/A         74  43  33  E3      29.96F
#CENTERVILLE 1SWN/A         79  48  34  SE6     29.85F
#GOLDENDALE 1NE N/A         80  31  17  SE2     N/A
#GOLDENDALE 4W  N/A         83  21  10  SE3     30.00F
#GOODNOE HILLS  N/A         86  44  23  SE17    N/A
#LYLE 6NE       N/A         77  53  43  SW2     29.90F
#PITT 4SE       N/A         78  47  34  CALM    29.91F
$$

WAZ026-242010-
KITTITAS VALLEY

CITY            SKY/WX      TMP DP  RH  WIND    PRES   REMARKS
ELLENSBURG AP   SUNNY       80  40  24  SE6     30.00F
#ELLENSBURG CWU N/A         77  43  30  E3      29.87F
#ELLENSBURG 3NE N/A         76  47  36  CALM    28.08F
#ELLENSBURG 1E  N/A         79  47  32  CALM    29.95F
#KITTITAS 3S    N/A         75  55  50  CALM    29.90F
#MANASTASH RDG  N/A         76  76  100 NE5     N/A
#ROCKY CYN DOT  N/A         77  49  37  E7      N/A
#RYEGRASS DOT   N/A         76  44  32  E6      N/A
$$

WAZ027-242010-
YAKIMA VALLEY

CITY            SKY/WX      TMP DP  RH  WIND    PRES   REMARKS
SUNNYSIDE AP    N/A         80  40  24  W6      29.95F
YAKIMA AIRPORT  SUNNY       85  42  22  VRB5    29.97F
YAKIMA-VAGABOND SUNNY       83  32  16  N9      29.95F
#DONALD 2NE     N/A         84  22  10  S7      28.81F
#GRANDVIEW      N/A         81  42  25  CALM    29.92F
#MABTON         N/A         79  47  32  N1      29.94F
#MOXEE 2E       N/A         81  N/A N/A S3      29.86F
#NACHES 2SW     N/A         80  51  36  E1      30.01F
#OUTLOOK DOT    N/A         81  40  23  CALM    29.93F
#PARKER DOT     N/A         83  38  20  NE9     29.95F
#TERRACE HTS    N/A         83  45  26  S3      29.85F
#TOPPENISH      N/A         79  45  30  CALM    29.83F
#I82 S UMTANUM RN/A         78  44  30  E6      N/A
#UNION GAP DOT  N/A         83  32  16  NE1     29.99F
#W YAKIMA       N/A         80  47  31  S5      29.90F
#WHITE SWAN 5E  N/A         81  47  30  CALM    29.91F
#WILEY CITY 3W  N/A         84  33  16  CALM    29.96F
#ZILLAH DOT     N/A         83  40  22  S3      N/A
$$

WAZ028-242010-
LOWER COLUMBIA BASIN...WASHINGTON

CITY            SKY/WX      TMP DP  RH  WIND    PRES   REMARKS
HANFORD         SUNNY       84  36  18  E7      29.95F
PASCO           SUNNY       83  45  26  N12     29.95F
PROSSER AWOS    N/A         82  48  31  CALM    29.98F
RICHLAND AWOS   SUNNY       88  39  18  N12     29.94F
#BENTON CITY    N/A         81  40  23  NE8     29.81F
#CONNELL 5N     N/A         84  36  18  NW6     29.89F
#CONNELL 5NW    N/A         83  38  20  N6      29.85F
#ELTOPIA 6NW    N/A         81  50  34  CALM    28.93F
#KAHLOTUS       N/A         81  36  20  N7      29.87F
#KENNEWICK 3S   N/A         80  48  33  N1      29.91F
#PATERSON       N/A         83  42  24  E7      29.89F
#PROSSER DOT    N/A         84  41  22  W1      29.95F
#SAGEMOOR 2W    N/A         79  48  34  N6      29.78F
#TOUCHET 2S     N/A         85  46  26  W5      29.89F
#WEST PASCO     N/A         83  49  31  N5      29.94F
$$

WAZ029-242010-
FOOTHILLS OF THE BLUES...WASHINGTON

CITY            SKY/WX      TMP DP  RH  WIND    PRES   REMARKS
WALLA WALLA AP  SUNNY       82  43  25  CALM    29.95F
#CLYDE 6NW      N/A         81  36  20  NE6     29.86F
#DAYTON SCHOOL  N/A         81  33  18  N2      29.97F
#DELANEY DOT    N/A         86  30  13  W2      29.95F
#LOWDEN 2SE     N/A         82  49  32  W3      29.90F
#PLEASANT VIEW 1N/A         82  33  17  W6      29.89F
#PRESCOTT       N/A         86  50  29  CALM    29.87F
#WHITMAN COLLEGEN/A         80  46  30  S1      29.93F
#WAITSBURG 5S   N/A         84  40  21  N1      29.95F
#WAITSBURG 6SSE N/A         83  34  17  NE3     29.90F
#WALLA WALLA 5E N/A         83  46  27  W5      N/A
#WHITMAN MISSIONN/A         82  51  34  CALM    29.90F
$$

WAZ030-242010-
BLUE MOUNTAINS...WASHINGTON

CITY            SKY/WX      TMP DP  RH  WIND    PRES   REMARKS
#DIXIE 5SE      N/A         73  39  29  NW9     29.95F
$$

ORZ009-041-WAZ024-242010-
COLUMBIA RIVER GORGE

CITY            SKY/WX      TMP DP  RH  WIND    PRES   REMARKS
HOOD RIVER AP   SUNNY       84  50  31  NE6     29.93F
THE DALLES AP   SUNNY       84  52  33  CALM    29.91F
#ARLINGTON AIRPON/A         82  43  25  E10     29.90F
#CELILO DOT     N/A         87  59  39  CALM    N/A
#LYLE           N/A         83  55  38  SE2     29.91F
#MARYHILL       N/A         84  43  24  N7      29.79F
#RUFUS DOT      N/A         82  N/A N/A NE6     N/A
#SMITHVILLE     N/A         84  54  36  NE3     29.89F

$$

ORZ510-242010-
NORTH CENTRAL OREGON

CITY            SKY/WX      TMP DP  RH  WIND    PRES   REMARKS
#ANTELOPE       N/A         78  47  34  NE8     29.65S
#CHENOWITH 1W   N/A         82  49  32  SE9     N/A
#COW CYN RST AREN/A         78  40  26  N8      N/A
#DUFUR          N/A         81  46  29  N3      29.85F
#DUFUR 9E       N/A         75  40  28  NE15G26 29.92F
#GRASS VALLEY 1SN/A         80  42  26  E7      30.01F
#KENT DOT       N/A         79  45  30  NE12    N/A
#MAUPIN SCHOOL  N/A         85  50  30  N8      29.96F
#MORO SCHOOL    N/A         80  47  31  E3      29.96F
#SHANIKO 5WSW   N/A         75  45  34  N13     N/A
#SHANIKO 4NW    N/A         74  39  28  NE13    30.04S
#TYGH VALLEY 2NEN/A         84  46  27  N5      29.85F
#WAPANITIA AIRPON/A         81  45  28  NE7     29.87F
#WASCO 5NE      N/A         83  46  27  N7      29.88F
$$

ORZ511-242010-
CENTRAL OREGON

CITY            SKY/WX      TMP DP  RH  WIND    PRES   REMARKS
BEND AIRPORT    SUNNY       82  39  22  VRB6    30.01F
MADRAS AIRPORT  SUNNY       82  41  23  N10     29.99F
PRINEVILLE AP   SUNNY       84  45  26  W13     29.99F
REDMOND AIRPORT SUNNY       83  42  24  N10     29.99F
#ASHWOOD SCHOOL N/A         82  46  28  N6      29.93F
#BEND 1SW       N/A         82  43  25  N2      N/A
#BEND-AWBREY    N/A         79  44  29  E3      29.79F
#BEND-KIM LN    N/A         81  47  30  NE6     29.75S
#CULVER         N/A         79  48  34  N5      29.74F
#CULVER 8W      N/A         82  40  22  CALM    30.00S
#LAKE BILLY CHINN/A         81  N/A N/A N6      29.90F
#MADRAS 4S      N/A         79  18  10  N7      N/A
#POWELL BUTTE   N/A         78  44  30  W3      N/A
#PRINEVILLE     N/A         83  48  30  W1      29.85F
#PRINEVILLE 3N  N/A         83  54  37  W8      29.85F
#WARM SPRINGS   N/A         84  50  31  CALM    29.72F

$$


ORZ509-242010-
EAST SLOPES OF OREGON CASCADES

CITY            SKY/WX      TMP DP  RH  WIND    PRES   REMARKS
SISTERS AWOS    N/A         81  45  28  S5      29.97F
#BLUE BOX PASS  N/A         77  N/A N/A CALM    N/A
#CAMP SHERMAN   N/A         89  45  22  VRB1    29.88F
#LA PINE 4NW    N/A         82  48  31  CALM    29.79F
#LAVA BUTTE DOT N/A         81  44  27  N1      N/A
#SISTERS ODOT   N/A         81  42  25  NE2     N/A
#SISTERS 3N     N/A         81  48  32  CALM    29.93S
#SUNRIVER       N/A         81  42  25  E3      29.95F
#TUMALO 3W      N/A         78  44  30  N5      29.67F
#WANOGA BUTTE D N/A         72  37  28  NE8     N/A

$$

ORZ044-242010-
LOWER COLUMBIA BASIN...OREGON

CITY            SKY/WX      TMP DP  RH  WIND    PRES   REMARKS
HERMISTON       SUNNY       86  41  21  NE7     29.94F
#BOARDMAN SCHOOLN/A         84  43  24  N5      29.91F
#BOARDMAN 8SW   N/A         83  46  27  NE7     29.90F
#ECHO 8SW       N/A         83  46  27  NE3     29.95F
#I-84 EX 198 DOTN/A         82  54  38  N3      N/A
#IONE SCHOOL    N/A         80  44  28  NE1     29.90F
#UMATILLA       N/A         85  43  23  NE3     29.83F
$$

ORZ507-242010-
NORTHERN FOOTHILLS OF THE BLUES

CITY            SKY/WX      TMP DP  RH  WIND    PRES   REMARKS
PENDLETON AIRPT SUNNY       85  34  16  N12     29.96S
#ADAMS 3WNW     N/A         81  42  25  N8      29.86F
#ATHENA         N/A         80  43  27  N1      29.90F
#CAYUSE         N/A         81  44  27  N5      29.85F
#HELIX SCHOOL   N/A         77  44  31  N9      29.88S
#HELIX 3N       N/A         77  44  31  N9      29.96S
#HOLDMAN 6E     N/A         79  43  28  N7      29.69F
#M-F GROVE ELEM N/A         79  42  27  CALM    29.93F
#M-FREEWATER 5SEN/A         77  53  43  CALM    29.95F
#PENDLETON DNTN N/A         89  46  23  CALM    29.92F
#PDT AQUATIC CTRN/A         79  46  31  VRB3    29.96S
#PDT SUNRIDGE   N/A         83  45  26  E2      29.96F
#PENDLETON 7NW  N/A         83  52  34  N2      29.97F
#PILOT ROCK 1S  N/A         78  42  28  CALM    29.98F
#PILOT ROCK     N/A         80  42  26  CALM    29.99F
#TUTUILLA       N/A         81  48  32  N3      29.99F
#UMAPINE 2E     N/A         83  48  30  N3      29.91F
#WESTON SCHOOL  N/A         77  40  26  NE6     29.91S

$$

ORZ508-242010-
SOUTHERN FOOTHILLS OF THE BLUES

CITY            SKY/WX      TMP DP  RH  WIND    PRES   REMARKS
LEXINGTON       SUNNY       81  37  21  N14     30.00F
#AJAX           N/A         78  38  24  S13     30.14F
#CONDON 5W      N/A         72  37  28  NE13    30.01F
#FOSSIL SCHOOL  N/A         81  42  25  NE13G24 29.93F
#HEPPNER EOC    N/A         78  41  27  E7      29.80F
#HEPPNER 4NE    N/A         74  41  30  NE7     29.85F
#LEXINGTON 2SE  N/A         82  41  23  E6      29.92F
#MIKKALO        N/A         82  38  21  E8      30.10F
#OLEX 4N        N/A         79  41  26  NE12    29.95F
#RUGGS 5NE      N/A         77  43  30  N12     30.17F
#RUGGS 2SW      N/A         77  40  26  N6      29.86F

$$

ORZ502-503-242010-
BLUE MOUNTAINS

CITY            SKY/WX      TMP DP  RH  WIND    PRES   REMARKS
MEACHAM         SUNNY       75  38  26  VRB5    30.05S
#BATTLE MTN DOT N/A         72  45  38  N3      N/A
#GRANITE        N/A         86  48  27  NW3     29.68S
#HARDMAN 10S    N/A         76  45  33  N6      29.91S
#HEPPNER 15SE   N/A         79  44  29  NW2     29.90F
#LADD CYN SMT   N/A         82  49  32  N6      N/A
#LADD CREEK ODOTN/A         82  50  33  NE9     N/A
#LONG CREEK HS  N/A         78  47  34  CALM    N/A
#N POWDER DOT   N/A         82  55  40  NE14    N/A
#PIKES PEAK     N/A         71  45  39  CALM    27.99S
#TOLLGATE       N/A         67  45  45  N1      29.96R
#TROY SCHOOL    N/A         90  50  26  E1      29.63F HX 87
#UKIAH          N/A         77  46  33  NW8     29.74F
#WESTON 4E      N/A         75  45  34  CALM    29.81S
$$

ORZ505-242010-
JOHN DAY BASIN

CITY            SKY/WX      TMP DP  RH  WIND    PRES   REMARKS
JOHN DAY        MOCLDY      88  47  24  CALM    29.98F
#JOHN DAY KJDY  N/A         88  N/A N/A W9      31.07R
#ANTELOPE 9ESE  N/A         87  46  24  W3      N/A
#MITCHELL       N/A         84  56  38  CALM    30.14F
#MITCHELL 8NW   N/A         79  46  31  CALM    29.83F
#MONUMENT HS    N/A         90  47  23  W5      29.87F HX 87
#MT. VERNON 5SE N/A         83  47  28  NE1     29.95F
#SPRAY SCHOOL   N/A         90  N/A N/A CALM    N/A
$$

ORZ506-242010-
OCHOCO AND JOHN DAY HIGHLANDS

CITY            SKY/WX      TMP DP  RH  WIND    PRES   REMARKS
#HORSE RIDGE DO N/A         80  31  17  NW8     N/A
#IZEE 6NW       N/A         90  50  26  W6      N/A    HX 87
#PAULINA ODOT   N/A         87  44  22  E2      N/A
#PINE MTN OBS   N/A         71  37  29  N3      N/A
#PRAIRIE CITY   N/A         86  52  31  W1      30.11F
#SENECA         N/A         85  N/A N/A NW2     N/A
#SENECA 9NW     N/A         86  47  26  E1      29.69F
$$

ORZ049-242010-
GRANDE RONDE VALLEY

CITY            SKY/WX      TMP DP  RH  WIND    PRES   REMARKS
LA GRANDE       SUNNY       86  43  22  W5      29.96F
#COVE           N/A         83  52  34  N1      29.99F
#COVE SCHOOL    N/A         83  47  28  CALM    29.98F
#COVE 6NW       N/A         83  47  28  NW7     29.79F
#ELGIN 3N       N/A         87  40  19  S2      29.93F
#ELGIN 1E       N/A         84  45  26  CALM    N/A
#IMBLER SCHOOL  N/A         81  43  26  N6      29.93S
#ISLAND CITY 4N N/A         79  55  44  NW3     29.95S
#LA GRANDE-LEFFEN/A         94  50  23  NE5     29.97F HX 91
#UNION 1S       N/A         84  45  26  N5      29.79F
$$

ORZ050-242010-
WALLOWA COUNTY

CITY            SKY/WX      TMP DP  RH  WIND    PRES   REMARKS
JOSEPH AIRPORT  SUNNY       82  37  20  NE6     30.04F
#ENTERPRISE HS  N/A         82  50  33  CALM    29.67F
#IMNAHA SCHOOL  N/A         92  44  19  NW2     29.86F HX 88
#IMNAHA 10S     N/A         92  46  21  NE3     29.92F HX 88
#JOSEPH         N/A         78  38  24  CALM    29.98R
#JOSEPH 3N      N/A         79  46  31  CALM    30.05S
#JOSEPH 3W      N/A         79  53  41  CALM    29.91S
#LOSTINE        N/A         82  46  28  N6      29.60F
#LOSTINE 3SE    N/A         82  45  27  E8      30.03F
#MT HOWARD 8000 N/A         65  42  43  NW3     30.32R
#PROMISE 1S     N/A         80  49  34  N3      29.87F
#WALLOWA LAKE   N/A         84  47  28  N2      30.07F
#WALLOWA SCHOOL N/A         85  46  26  CALM    29.93F



$$



USA.gov is the U.S. government's official web portal to all federal, state and local government web resources and services.